| time (UTC) | temp F | wind direction | speed MPH | gust MPH | rain 1hr in | rain 24hr in | rain mn in | humidity % | barometer mb |
| 20260510180038 | 58 | 46 | 1.0 | 0.0 | 0.00 | 0.00 | 0.00 | 69 | 1018.3 |
| 20260510175035 | 58 | 359 | 1.0 | 0.0 | 0.00 | 0.00 | 0.00 | 69 | 1018.2 |
| 20260510174043 | 58 | 328 | 2.0 | 0.0 | 0.00 | 0.00 | 0.00 | 70 | 1018.2 |
| 20260510173052 | 58 | 334 | 1.0 | 0.0 | 0.00 | 0.00 | 0.00 | 71 | 1018.2 |
| 20260510172042 | 58 | 29 | 1.0 | 0.0 | 0.00 | 0.00 | 0.00 | 71 | 1018.2 |
| 20260510171052 | 57 | 320 | 1.0 | 0.0 | 0.00 | 0.00 | 0.00 | 72 | 1018.2 |
| 20260510165038 | 57 | 281 | 1.0 | 0.0 | 0.00 | 0.00 | 0.00 | 72 | 1017.1 |
| 20260510164040 | 57 | 42 | 1.0 | 0.0 | 0.00 | 0.00 | 0.00 | 73 | 1017.1 |
| 20260510163044 | 57 | 260 | 1.0 | 0.0 | 0.00 | 0.00 | 0.00 | 72 | 1017.5 |
| 20260510162113 | 56 | 340 | 1.0 | 0.0 | 0.00 | 0.00 | 0.00 | 73 | 1017.6 |
| 20260510161100 | 55 | 245 | 0.0 | 0.0 | 0.00 | 0.00 | 0.00 | 75 | 1017.6 |
| 20260510160035 | 54 | 60 | 1.0 | 0.0 | 0.00 | 0.00 | 0.00 | 75 | 1017.5 |
| 20260510155040 | 54 | 56 | 1.0 | 0.0 | 0.00 | 0.00 | 0.00 | 74 | 1017.0 |
| 20260510154036 | 54 | 290 | 1.0 | 0.0 | 0.00 | 0.00 | 0.00 | 75 | 1017.0 |
| 20260510153042 | 54 | 124 | 1.0 | 0.0 | 0.00 | 0.00 | 0.00 | 74 | 1017.0 |
| 20260510152049 | 55 | 3 | 1.0 | 0.0 | 0.00 | 0.00 | 0.00 | 73 | 1017.4 |
| 20260510151030 | 54 | 263 | 1.0 | 0.0 | 0.00 | 0.00 | 0.00 | 74 | 1017.4 |
| 20260510150044 | 53 | 134 | 0.0 | 0.0 | 0.00 | 0.00 | 0.00 | 75 | 1017.1 |
| 20260510145040 | 52 | 134 | 0.0 | 0.0 | 0.00 | 0.00 | 0.00 | 78 | 1017.1 |
| 20260510144041 | 51 | 133 | 0.0 | 0.0 | 0.00 | 0.00 | 0.00 | 79 | 1017.1 |
| 20260510143037 | 51 | 131 | 0.0 | 0.0 | 0.00 | 0.00 | 0.00 | 79 | 1017.0 |
| 20260510142042 | 50 | 129 | 1.0 | 0.0 | 0.00 | 0.00 | 0.00 | 78 | 1015.9 |
| 20260510141052 | 51 | 41 | 1.0 | 0.0 | 0.00 | 0.00 | 0.00 | 78 | 1015.9 |
| 20260510140042 | 51 | 96 | 0.0 | 0.0 | 0.00 | 0.00 | 0.00 | 79 | 1016.9 |
| 20260510135047 | 50 | 96 | 0.0 | 0.0 | 0.00 | 0.00 | 0.00 | 80 | 1017.0 |
| 20260510134105 | 49 | 96 | 0.0 | 0.0 | 0.00 | 0.00 | 0.00 | 80 | 1017.0 |
| 20260510133041 | 49 | 70 | 0.0 | 0.0 | 0.00 | 0.00 | 0.00 | 80 | 1017.3 |
| 20260510132038 | 48 | 70 | 0.0 | 0.0 | 0.00 | 0.00 | 0.00 | 80 | 1017.0 |
| 20260510131041 | 48 | 71 | 0.0 | 0.0 | 0.00 | 0.00 | 0.00 | 79 | 1017.0 |
| 20260510130101 | 48 | 70 | 0.0 | 0.0 | 0.00 | 0.00 | 0.00 | 79 | 1017.1 |
| 20260510125050 | 48 | 71 | 0.0 | 0.0 | 0.00 | 0.00 | 0.00 | 79 | 1017.1 |
| 20260510124029 | 48 | 70 | 0.0 | 0.0 | 0.00 | 0.00 | 0.00 | 79 | 1017.1 |
| 20260510123036 | 48 | 70 | 0.0 | 0.0 | 0.00 | 0.00 | 0.00 | 79 | 1016.9 |
| 20260510122100 | 48 | 70 | 0.0 | 0.0 | 0.00 | 0.00 | 0.00 | 79 | 1016.6 |
| 20260510121044 | 48 | 70 | 0.0 | 0.0 | 0.00 | 0.00 | 0.00 | 79 | 1016.6 |
| 20260510120054 | 49 | 70 | 0.0 | 0.0 | 0.00 | 0.00 | 0.00 | 78 | 1016.6 |
| 20260510115037 | 49 | 70 | 0.0 | 0.0 | 0.00 | 0.00 | 0.00 | 78 | 1017.0 |
| 20260510114057 | 49 | 71 | 0.0 | 0.0 | 0.00 | 0.00 | 0.00 | 78 | 1017.0 |
| 20260510113042 | 49 | 70 | 0.0 | 0.0 | 0.00 | 0.00 | 0.00 | 78 | 1016.7 |
| 20260510112100 | 50 | 71 | 0.0 | 0.0 | 0.00 | 0.00 | 0.00 | 78 | 1016.5 |
| 20260510111045 | 50 | 71 | 0.0 | 0.0 | 0.00 | 0.00 | 0.00 | 78 | 1016.5 |
| 20260510110114 | 50 | 49 | 0.0 | 0.0 | 0.00 | 0.00 | 0.00 | 77 | 1016.5 |
| 20260510105038 | 50 | 50 | 0.0 | 0.0 | 0.00 | 0.00 | 0.00 | 77 | 1016.5 |
| 20260510104054 | 50 | 1 | 0.0 | 0.0 | 0.00 | 0.00 | 0.00 | 78 | 1016.5 |
| 20260510103036 | 50 | 359 | 1.0 | 0.0 | 0.00 | 0.00 | 0.00 | 78 | 1016.5 |
| 20260510102051 | 50 | 1 | 0.0 | 0.0 | 0.00 | 0.00 | 0.00 | 78 | 1016.4 |
| 20260510101042 | 50 | 1 | 0.0 | 0.0 | 0.00 | 0.00 | 0.00 | 78 | 1016.4 |
| 20260510100042 | 50 | 283 | 0.0 | 0.0 | 0.00 | 0.00 | 0.00 | 78 | 1016.1 |
| 20260510095043 | 50 | 202 | 0.0 | 0.0 | 0.00 | 0.00 | 0.00 | 78 | 1016.0 |
| 20260510094033 | 51 | 202 | 0.0 | 0.0 | 0.00 | 0.00 | 0.00 | 78 | 1016.0 |
| 20260510093044 | 51 | 202 | 0.0 | 0.0 | 0.00 | 0.00 | 0.00 | 78 | 1015.8 |
| 20260510092049 | 51 | 202 | 0.0 | 0.0 | 0.00 | 0.00 | 0.00 | 78 | 1015.7 |
| 20260510091045 | 51 | 201 | 0.0 | 0.0 | 0.00 | 0.00 | 0.00 | 78 | 1015.7 |
| 20260510090050 | 51 | 201 | 0.0 | 0.0 | 0.00 | 0.00 | 0.00 | 78 | 1015.6 |
| 20260510085036 | 51 | 201 | 0.0 | 0.0 | 0.00 | 0.00 | 0.00 | 78 | 1015.5 |
| 20260510084040 | 51 | 201 | 0.0 | 0.0 | 0.00 | 0.00 | 0.00 | 79 | 1015.5 |
| 20260510083034 | 52 | 201 | 0.0 | 0.0 | 0.00 | 0.00 | 0.00 | 79 | 1015.5 |
| 20260510082033 | 52 | 201 | 0.0 | 0.0 | 0.00 | 0.00 | 0.00 | 79 | 1015.6 |
| 20260510081039 | 52 | 201 | 0.0 | 0.0 | 0.00 | 0.00 | 0.00 | 79 | 1015.6 |
| 20260510080038 | 53 | 201 | 0.0 | 0.0 | 0.00 | 0.00 | 0.00 | 80 | 1015.8 |
| 20260510075039 | 53 | 201 | 0.0 | 0.0 | 0.00 | 0.00 | 0.00 | 80 | 1015.7 |
| 20260510074056 | 53 | 201 | 0.0 | 0.0 | 0.00 | 0.00 | 0.00 | 79 | 1015.7 |
| 20260510073045 | 54 | 201 | 0.0 | 0.0 | 0.00 | 0.00 | 0.00 | 79 | 1015.6 |
| 20260510072029 | 54 | 201 | 0.0 | 0.0 | 0.00 | 0.00 | 0.00 | 79 | 1015.7 |
| 20260510071030 | 54 | 201 | 0.0 | 0.0 | 0.00 | 0.00 | 0.00 | 79 | 1015.7 |
| 20260510070049 | 54 | 201 | 0.0 | 0.0 | 0.00 | 0.00 | 0.00 | 79 | 1015.9 |
| 20260510065059 | 54 | 202 | 0.0 | 0.0 | 0.00 | 0.00 | 0.00 | 79 | 1016.0 |
| 20260510064039 | 54 | 202 | 0.0 | 0.0 | 0.00 | 0.00 | 0.00 | 79 | 1016.0 |
| 20260510063051 | 54 | 202 | 0.0 | 0.0 | 0.00 | 0.00 | 0.00 | 79 | 1015.9 |
| 20260510062038 | 55 | 202 | 0.0 | 0.0 | 0.00 | 0.00 | 0.00 | 78 | 1015.7 |
| 20260510061055 | 55 | 202 | 0.0 | 0.0 | 0.00 | 0.00 | 0.00 | 78 | 1015.7 |
| 20260510060044 | 55 | 202 | 0.0 | 0.0 | 0.00 | 0.00 | 0.00 | 78 | 1015.5 |
| 20260510055036 | 56 | 202 | 0.0 | 0.0 | 0.00 | 0.00 | 0.00 | 78 | 1015.6 |
| 20260510054113 | 56 | 202 | 0.0 | 0.0 | 0.00 | 0.00 | 0.00 | 77 | 1015.6 |
| 20260510053035 | 56 | 202 | 0.0 | 0.0 | 0.00 | 0.00 | 0.00 | 77 | 1015.6 |
| 20260510052045 | 56 | 202 | 0.0 | 0.0 | 0.00 | 0.00 | 0.00 | 77 | 1015.7 |
| 20260510051045 | 57 | 202 | 0.0 | 0.0 | 0.00 | 0.00 | 0.00 | 77 | 1015.7 |
| 20260510050038 | 57 | 201 | 0.0 | 0.0 | 0.00 | 0.00 | 0.00 | 76 | 1015.5 |
| 20260510045036 | 57 | 201 | 0.0 | 0.0 | 0.00 | 0.00 | 0.00 | 75 | 1015.5 |
| 20260510044058 | 58 | 201 | 0.0 | 0.0 | 0.00 | 0.00 | 0.00 | 75 | 1015.5 |
| 20260510043043 | 58 | 201 | 0.0 | 0.0 | 0.00 | 0.00 | 0.00 | 75 | 1015.4 |
| 20260510042052 | 59 | 201 | 0.0 | 0.0 | 0.00 | 0.00 | 0.00 | 74 | 1015.6 |
| 20260510041046 | 59 | 201 | 0.0 | 0.0 | 0.00 | 0.00 | 0.00 | 73 | 1015.6 |
| 20260510040040 | 60 | 201 | 0.0 | 0.0 | 0.00 | 0.00 | 0.00 | 72 | 1015.5 |
| 20260510035104 | 60 | 201 | 0.0 | 0.0 | 0.00 | 0.00 | 0.00 | 72 | 1015.5 |
| 20260510034045 | 60 | 201 | 0.0 | 0.0 | 0.00 | 0.00 | 0.00 | 71 | 1015.5 |
| 20260510032046 | 61 | 220 | 0.0 | 0.0 | 0.00 | 0.00 | 0.00 | 69 | 1015.9 |
| 20260510031036 | 62 | 220 | 0.0 | 0.0 | 0.00 | 0.00 | 0.00 | 69 | 1015.9 |
| 20260510030110 | 62 | 220 | 0.0 | 0.0 | 0.00 | 0.00 | 0.00 | 68 | 1015.9 |